Home > Weather > Glyfada > Past weeks

Flag for Greece Past Weather in Glyfada, Greece — Yesterday and Last 2 Weeks

Now
75 °F

Passing clouds.


Feels Like: 78 °F
Forecast: 76 / 83 °F
Wind: 18 mph from North

Location: Eleftherios Venizelos International Airport

Current Time: Aug 26, 2016 at 8:15:31 AM

Latest Report: Aug 26, 2016 at 7:20 AM


Visibility: N/A

Pressure: 29.95 "Hg

Humidity: 50%

Dew Point: 55 °F

Location of GlyfadaLocation

Past Weather in Glyfada — Graph

°F

Glyfada Temperature Yesterday

Maximum temperature yesterday: 82 °F (at 12:50 AM)
Minimum temperature yesterday: 77 °F (at 4:20 AM)
Average temperature yesterday: 80 °F

High & Low Weather Summary for the Past Weeks

 TemperatureHumidityPressure
High95 °F (Aug 11, 3:20 PM)74% (Aug 13, 3:50 AM)30.12 "Hg (Aug 13, 3:50 AM)
Low61 °F (Aug 18, 6:20 AM)19% (Aug 18, 1:50 PM)29.77 "Hg (Aug 18, 4:20 PM)
Average80 °F45%29.91 "Hg
* Reported Aug 11 6:20 AM — Aug 26 6:50 AM, Glyfada, Weather by CustomWeather, © 2016

Note: Actual official high and low records may vary slightly from our data, if they occured in-between our weather recording intervals... More about our weather records

Advertising

Glyfada Weather History for the Previous 24 Hours

Scroll right to see more
 ConditionsComfort  
Time TempWeatherWind HumidityBarometerVisibility
6:50 AM
Fri, Aug 26
75 °FPassing clouds.15 mph50%29.95 "HgN/A
6:20 AM75 °FPassing clouds.25 mph50%29.92 "HgN/A
5:50 AM75 °FPassing clouds.30 mph50%29.92 "HgN/A
5:20 AM75 °FPassing clouds.32 mph50%29.92 "HgN/A
4:50 AM75 °FPassing clouds.30 mph50%29.92 "HgN/A
4:20 AM75 °FPassing clouds.31 mph47%29.92 "HgN/A
3:50 AM77 °FPassing clouds.31 mph44%29.89 "HgN/A
3:20 AM77 °FPassing clouds.32 mph44%29.89 "HgN/A
2:50 AM77 °FPassing clouds.30 mph44%29.92 "HgN/A
2:20 AM77 °FPartly cloudy.31 mph47%29.92 "HgN/A
1:50 AM77 °FPassing clouds.31 mph47%29.92 "HgN/A
1:20 AM79 °FPassing clouds.29 mph45%29.92 "HgN/A
12:50 AM79 °FPassing clouds.28 mph42%29.92 "HgN/A
12:20 AM79 °FPassing clouds.30 mph42%29.89 "HgN/A
11:50 PM
Thu, Aug 25
79 °FPassing clouds.31 mph45%29.89 "HgN/A
11:20 PM79 °FPassing clouds.29 mph48%29.89 "HgN/A
10:50 PM79 °FPassing clouds.30 mph48%29.92 "HgN/A
10:20 PM79 °FPassing clouds.18 mph48%29.92 "HgN/A
9:50 PM79 °FPassing clouds.16 mph48%29.92 "HgN/A
9:20 PM79 °FPassing clouds.15 mph48%29.92 "HgN/A
8:50 PM79 °FScattered clouds.13 mph51%29.92 "HgN/A
8:20 PM79 °FScattered clouds.14 mph51%29.89 "HgN/A
7:50 PM79 °FScattered clouds.18 mph51%29.89 "HgN/A
7:20 PM81 °FScattered clouds.20 mph51%29.89 "HgN/A
6:50 PM81 °FPassing clouds.21 mph51%29.89 "HgN/A
6:20 PM81 °FPassing clouds.18 mph51%29.89 "HgN/A
5:50 PM82 °FPassing clouds.21 mph48%29.89 "HgN/A
5:20 PM82 °FPassing clouds.28 mph51%29.89 "HgN/A
4:50 PM82 °FPassing clouds.29 mph55%29.89 "HgN/A
4:20 PM82 °FPassing clouds.29 mph55%29.89 "HgN/A
3:50 PM82 °FPassing clouds.28 mph55%29.89 "HgN/A
3:20 PM81 °FPassing clouds.30 mph58%29.86 "HgN/A
2:50 PM82 °FPassing clouds.32 mph55%29.86 "HgN/A
2:20 PM82 °FScattered clouds.24 mph55%29.89 "HgN/A
1:50 PM82 °FScattered clouds.25 mph55%29.89 "HgN/A
1:20 PM82 °FPassing clouds.25 mph55%29.89 "HgN/A
12:50 PM82 °FPassing clouds.23 mph55%29.89 "HgN/A
12:20 PM82 °FPassing clouds.28 mph58%29.89 "HgN/A
11:50 AM82 °FScattered clouds.24 mph58%29.89 "HgN/A
11:20 AM82 °FScattered clouds.28 mph58%29.89 "HgN/A
10:50 AM81 °FScattered clouds.29 mph62%29.89 "HgN/A
10:20 AM79 °FScattered clouds.22 mph61%29.89 "HgN/A
9:50 AM81 °FScattered clouds.18 mph58%29.89 "HgN/A
9:20 AM79 °FScattered clouds.22 mph61%29.86 "HgN/A
8:50 AM79 °FScattered clouds.17 mph61%29.86 "HgN/A
8:20 AM77 °FScattered clouds.17 mph65%29.86 "HgN/A
Weather by CustomWeather, © 2016

See weather overviewHow to use our weather pages